sat.trackr.live / text

‹ back to catalog

COSMOS 2572

NORAD 58435 · 2023-182A

PAYLOAD ACTIVE UNKNOWN

§ Identity

Operator
Country
CIS
Launch date
2023-11-25
Launch site
PLMSC
Launch vehicle
Mass (kg)
RCS (m²)

External: N2YO · Heavens-Above · Gunter

§ Orbital elements

Epoch: 2026-05-25T05:08:25.977984Z

Period
90.56 min
Inclination
96.6797°
Eccentricity
0.0006242
Mean motion
15.90131292 rev/d
Perigee alt
297.7 km
Apogee alt
306.1 km
Semi-major
6,680.1 km
B*
3.2977e-5
RAAN
249.6395°
Arg perigee
203.2809°
Mean anomaly
156.8184°
Rev number
14,480

§ Raw data

COSMOS 25721 58435U 23182A   26145.21418956  .00009294  19095-5  32977-4 0  99902 58435  96.6797 249.6395 0006242 203.2809 156.8184 15.90131292144800

JSON: /api/v1/satellites/58435 · /tle

For live sub-satellite position, see the globe view (requires WebGL).

§ Visibility from observer

Set your observer location to see the next 7 days of passes ≥ 10°. The values pass through the URL so the page stays shareable.

No JS? Fill the form by hand. The geolocation button needs JavaScript.

§ Radio — SatNOGS DB

ModeDescriptionDownlinkUplink
BPSK S-band telemetry 2.285 GHz

1 transmitter · refreshed weekly from db.satnogs.org